Location: Unspecified
(0.0000°N, 0.0000°E)
Time: 12:23:16
(UTC+00:00)

Vanguard 2 Rocket - Pass Details

Date: 20 December 2018
Orbit: 554 x 3326 km, 32.9° (Epoch: 15 July)

Event Time Altitude Azimuth Distance (km) Brightness Sun altitude
Rises 19:49:10 0° 226° (SW) 7,190 12.6 -25.4°
Reaches altitude 10° 19:56:08 10° 212° (SSW) 6,285 11.9 -26.9°
Maximum altitude 20:10:15 22° 167° (SSE) 5,040 10.7 -30.1°
Drops below altitude 10° 20:22:11 10° 122° (ESE) 5,321 10.5 -32.7°
Enters shadow 20:22:52 - 120° (ESE) 5,384 10.5 -32.9°
Sets 20:27:14 0° 107° (ESE) 5,897 - -33.8°
